Location: Peace River
(56.2330°N, 117.2830°W)
Time: 08:52:45
(UTC-07:00)

Envisat - Visible Passes

Search period start: 24 February 2018 00:00
Search period end: 06 March 2018 00:00
Orbit: 764 x 766 km, 98.2° (Epoch: 24 February)

Date Brightness Start Highest point End Pass type
(mag) Time Alt. Az. Time Alt. Az. Time Alt. Az.
24 Feb 3.1 20:07:11 10° SSE 20:12:16 77° WSW 20:17:24 10° NNW visible
24 Feb 5.8 21:49:13 10° WSW 21:52:11 15° W 21:55:10 10° NW visible
25 Feb 3.0 19:30:34 10° SSE 19:35:34 61° ENE 19:40:36 10° N visible
25 Feb 4.9 21:10:38 10° SSW 21:14:59 28° W 21:19:20 10° NNW visible
26 Feb 3.6 18:54:27 10° SE 18:59:01 35° ENE 19:03:38 10° N visible
26 Feb 3.9 20:33:01 10° S 20:37:57 50° W 20:42:55 10° NNW visible
27 Feb 3.0 19:56:02 10° SSE 20:01:07 90° S 20:06:15 10° NNW visible
27 Feb 5.5 21:37:23 10° SW 21:40:53 18° W 21:44:24 10° NW visible
28 Feb 3.2 19:19:33 10° SE 19:24:28 51° ENE 19:29:24 10° N visible
28 Feb 4.7 20:59:09 10° SSW 21:03:44 33° W 21:08:19 10° NNW visible
01 Mar 3.5 20:21:44 10° S 20:26:46 60° WSW 20:31:49 10° NNW visible
01 Mar 5.9 22:05:04 10° WSW 22:06:54 12° W 22:08:44 10° WNW visible
02 Mar 2.9 19:44:55 10° SSE 19:49:59 77° ENE 19:55:06 10° NNW visible
02 Mar 5.3 21:25:42 10° SW 21:29:36 22° W 21:33:31 10° NW visible
03 Mar 3.4 19:08:35 10° SE 19:13:23 44° ENE 19:18:12 10° N visible
03 Mar 4.3 20:47:45 10° SSW 20:52:30 39° W 20:57:17 10° NNW visible
04 Mar 3.3 20:10:31 10° S 20:15:35 72° WSW 20:20:42 10° NNW visible
04 Mar 5.8 21:52:52 10° WSW 21:55:34 14° W 21:58:17 10° NW visible
05 Mar 3.0 19:33:50 10° SSE 19:38:52 65° ENE 19:43:55 10° NNW visible
05 Mar 5.1 21:14:06 10° SSW 21:18:20 26° W 21:22:35 10° NW visible
